Tracking 18980 objects as of 20-Feb-2018
HD Live streaming from Space Station
objects crossing your sky now

ATLAS CENTAUR DEB

Track ATLAS CENTAUR DEB now!


NORAD ID: 25253
Int'l Code: 1978-068C
Perigee: 875.6 km
Apogee: 35,584.8 km
Inclination: 22.0 °
Period: 640.0 minutes
Semi major axis: 24601 km
RCS: 0.1092 m2 (medium)
Launch date: June 29, 1978
Source: United States (US)
Launch site: AIR FORCE EASTERN TEST RANGE (AFETR)

Note: This is SATELLITE DEBRIS
aabbcc
Your satellite tracking list
Your tracking list is empty




NASA's NSSDC Master Catalog

Two Line Element Set (TLE):
1 25253U 78068C   18051.20161678 -.00000072  00000-0  44866-3 0  9993
2 25253  22.0443 329.0871 7054362 114.6140   1.8129  2.24992777169521
Source of the keplerian elements: AFSPC